Stündliche Wetter Tymoshyne

Heute, 2 Oktober, Freitag

Zeit Temperatur Niederschläge Wind Luftdruck Luftfeuchtigkeit
00:00 +17°C° 0 mm 7 m/S 748 mmHg 32%
01:00 +17°C° 0 mm 7 m/S 748 mmHg 34%
02:00 +16°C° 0 mm 7 m/S 748 mmHg 36%
03:00 +15°C° 0 mm 7 m/S 748 mmHg 38%
04:00 +15°C° 0 mm 7 m/S 748 mmHg 40%
05:00 +14°C° 0 mm 7 m/S 748 mmHg 42%
06:00 +14°C° 0 mm 6 m/S 748 mmHg 45%
07:00 +14°C° 0 mm 7 m/S 749 mmHg 43%
08:00 +15°C° 0 mm 7 m/S 749 mmHg 41%
09:00 +16°C° 0 mm 8 m/S 749 mmHg 39%
10:00 +17°C° 0 mm 8 m/S 749 mmHg 35%
11:00 +18°C° 0 mm 8 m/S 749 mmHg 31%
12:00 +21°C° 0 mm 8 m/S 749 mmHg 28%
13:00 +21°C° 0 mm 7 m/S 749 mmHg 28%
14:00 +21°C° 0 mm 6 m/S 749 mmHg 28%
15:00 +21°C° 0 mm 5 m/S 749 mmHg 28%
16:00 +20°C° 0 mm 5 m/S 749 mmHg 29%
17:00 +20°C° 0 mm 5 m/S 749 mmHg 31%
18:00 +19°C° 0 mm 6 m/S 749 mmHg 32%
19:00 +19°C° 0 mm 5 m/S 749 mmHg 33%
20:00 +17°C° 0 mm 5 m/S 750 mmHg 34%
21:00 +18°C° 0 mm 4 m/S 750 mmHg 36%
22:00 +17°C° 0 mm 4 m/S 750 mmHg 36%
23:00 +17°C° 0 mm 4 m/S 750 mmHg 37%

Morgen, 3 Oktober, Samstag

Zeit Temperatur Niederschläge Wind Luftdruck Luftfeuchtigkeit
00:00 +15°C° 0 mm 4 m/S 750 mmHg 38%
01:00 +15°C° 0 mm 4 m/S 750 mmHg 40%
02:00 +15°C° 0 mm 5 m/S 751 mmHg 41%
03:00 +15°C° 0 mm 5 m/S 751 mmHg 43%
04:00 +15°C° 0 mm 4 m/S 751 mmHg 43%
05:00 +15°C° 0 mm 4 m/S 751 mmHg 43%
06:00 +15°C° 0 mm 4 m/S 751 mmHg 43%
07:00 +15°C° 0 mm 4 m/S 752 mmHg 40%
08:00 +15°C° 0 mm 5 m/S 752 mmHg 38%
09:00 +16°C° 0 mm 5 m/S 752 mmHg 35%
10:00 +17°C° 0 mm 5 m/S 752 mmHg 32%
11:00 +20°C° 0 mm 6 m/S 752 mmHg 28%
12:00 +21°C° 0 mm 6 m/S 752 mmHg 24%
13:00 +22°C° 0 mm 6 m/S 752 mmHg 23%
14:00 +22°C° 0 mm 6 m/S 752 mmHg 22%
15:00 +22°C° 0 mm 6 m/S 752 mmHg 21%
16:00 +20°C° 0 mm 5 m/S 752 mmHg 25%
17:00 +19°C° 0 mm 4 m/S 752 mmHg 28%
18:00 +17°C° 0 mm 3 m/S 752 mmHg 31%
19:00 +16°C° 0 mm 3 m/S 752 mmHg 33%
20:00 +14°C° 0 mm 3 m/S 753 mmHg 35%
21:00 +14°C° 0 mm 2 m/S 753 mmHg 37%
22:00 +14°C° 0 mm 2 m/S 753 mmHg 36%
23:00 +14°C° 0 mm 2 m/S 753 mmHg 35%

übermorgen, 4 Oktober, Sonntag

Zeit Temperatur Niederschläge Wind Luftdruck Luftfeuchtigkeit
00:00 +14°C° 0 mm 2 m/S 753 mmHg 34%
01:00 +14°C° 0 mm 3 m/S 753 mmHg 31%
02:00 +14°C° 0 mm 3 m/S 753 mmHg 28%
03:00 +16°C° 0 mm 3 m/S 753 mmHg 25%
04:00 +14°C° 0 mm 3 m/S 753 mmHg 24%
05:00 +14°C° 0 mm 3 m/S 753 mmHg 24%
06:00 +14°C° 0 mm 3 m/S 754 mmHg 23%
07:00 +16°C° 0 mm 3 m/S 754 mmHg 23%
08:00 +15°C° 0 mm 4 m/S 754 mmHg 22%
09:00 +17°C° 0 mm 4 m/S 754 mmHg 21%
10:00 +18°C° 0 mm 4 m/S 754 mmHg 20%
11:00 +20°C° 0 mm 4 m/S 754 mmHg 18%
12:00 +21°C° 0 mm 4 m/S 754 mmHg 17%
13:00 +22°C° 0 mm 4 m/S 754 mmHg 17%
14:00 +22°C° 0 mm 4 m/S 754 mmHg 17%
15:00 +22°C° 0 mm 4 m/S 754 mmHg 17%
16:00 +21°C° 0 mm 4 m/S 754 mmHg 18%
17:00 +19°C° 0 mm 4 m/S 754 mmHg 19%
18:00 +17°C° 0 mm 3 m/S 754 mmHg 20%
19:00 +16°C° 0 mm 3 m/S 754 mmHg 21%
20:00 +13°C° 0 mm 3 m/S 754 mmHg 23%
21:00 +12°C° 0 mm 3 m/S 755 mmHg 24%
22:00 +11°C° 0 mm 3 m/S 755 mmHg 25%
23:00 +11°C° 0 mm 3 m/S 755 mmHg 27%

5 Oktober, Montag

Zeit Temperatur Niederschläge Wind Luftdruck Luftfeuchtigkeit
00:00 +10°C° 0 mm 3 m/S 755 mmHg 28%
01:00 +10°C° 0 mm 3 m/S 755 mmHg 29%
02:00 +9°C° 0 mm 3 m/S 755 mmHg 30%
03:00 +9°C° 0 mm 3 m/S 755 mmHg 31%
04:00 +8°C° 0 mm 3 m/S 755 mmHg 35%
05:00 +8°C° 0 mm 3 m/S 756 mmHg 39%
06:00 +8°C° 0 mm 3 m/S 756 mmHg 43%
07:00 +10°C° 0 mm 3 m/S 756 mmHg 45%
08:00 +12°C° 0 mm 3 m/S 756 mmHg 47%
09:00 +14°C° 0 mm 3 m/S 757 mmHg 49%
10:00 +17°C° 0 mm 4 m/S 756 mmHg 43%
11:00 +20°C° 0 mm 4 m/S 756 mmHg 37%
12:00 +22°C° 0 mm 5 m/S 756 mmHg 31%
13:00 +22°C° 0 mm 5 m/S 756 mmHg 31%
14:00 +22°C° 0 mm 4 m/S 756 mmHg 31%
15:00 +23°C° 0 mm 4 m/S 755 mmHg 31%
16:00 +21°C° 0 mm 4 m/S 755 mmHg 34%
17:00 +19°C° 0 mm 3 m/S 755 mmHg 38%
18:00 +17°C° 0 mm 3 m/S 755 mmHg 42%
19:00 +16°C° 0 mm 3 m/S 755 mmHg 45%
20:00 +14°C° 0 mm 3 m/S 755 mmHg 48%
21:00 +13°C° 0 mm 3 m/S 756 mmHg 51%
22:00 +12°C° 0 mm 3 m/S 756 mmHg 54%
23:00 +12°C° 0 mm 3 m/S 756 mmHg 56%

6 Oktober, Dienstag

Zeit Temperatur Niederschläge Wind Luftdruck Luftfeuchtigkeit
00:00 +11°C° 0 mm 3 m/S 756 mmHg 59%
01:00 +10°C° 0 mm 3 m/S 756 mmHg 62%
02:00 +10°C° 0 mm 3 m/S 756 mmHg 64%
03:00 +9°C° 0 mm 3 m/S 755 mmHg 67%
04:00 +9°C° 0 mm 3 m/S 756 mmHg 68%
05:00 +8°C° 0 mm 3 m/S 756 mmHg 69%
06:00 +8°C° 0 mm 3 m/S 756 mmHg 70%
07:00 +10°C° 0 mm 3 m/S 756 mmHg 63%
08:00 +12°C° 0 mm 3 m/S 756 mmHg 55%
09:00 +14°C° 0 mm 3 m/S 756 mmHg 48%
10:00 +17°C° 0 mm 3 m/S 756 mmHg 42%
11:00 +19°C° 0 mm 4 m/S 755 mmHg 36%
12:00 +21°C° 0 mm 4 m/S 755 mmHg 30%
13:00 +22°C° 0 mm 4 m/S 755 mmHg 28%
14:00 +22°C° 0 mm 4 m/S 754 mmHg 26%
15:00 +23°C° 0 mm 4 m/S 754 mmHg 23%
16:00 +21°C° 0 mm 3 m/S 754 mmHg 27%
17:00 +19°C° 0 mm 3 m/S 753 mmHg 30%
18:00 +17°C° 0 mm 3 m/S 753 mmHg 33%
19:00 +16°C° 0 mm 3 m/S 753 mmHg 36%
20:00 +14°C° 0 mm 3 m/S 753 mmHg 40%
21:00 +12°C° 0 mm 3 m/S 753 mmHg 43%
22:00 +12°C° 0 mm 3 m/S 753 mmHg 46%
23:00 +11°C° 0 mm 3 m/S 753 mmHg 48%

7 Oktober, Mittwoch

Zeit Temperatur Niederschläge Wind Luftdruck Luftfeuchtigkeit
00:00 +10°C° 0 mm 3 m/S 753 mmHg 51%
01:00 +10°C° 0 mm 2 m/S 753 mmHg 52%
02:00 +9°C° 0 mm 2 m/S 753 mmHg 54%
03:00 +9°C° 0 mm 2 m/S 753 mmHg 55%
04:00 +8°C° 0 mm 2 m/S 753 mmHg 55%
05:00 +8°C° 0 mm 2 m/S 753 mmHg 55%
06:00 +8°C° 0 mm 2 m/S 753 mmHg 55%
07:00 +10°C° 0 mm 3 m/S 753 mmHg 49%
08:00 +12°C° 0 mm 3 m/S 753 mmHg 43%
09:00 +14°C° 0 mm 3 m/S 754 mmHg 37%
10:00 +17°C° 0 mm 4 m/S 753 mmHg 32%
11:00 +19°C° 0 mm 4 m/S 753 mmHg 27%
12:00 +21°C° 0 mm 4 m/S 753 mmHg 23%
13:00 +22°C° 0 mm 4 m/S 753 mmHg 21%
14:00 +23°C° 0 mm 4 m/S 753 mmHg 19%
15:00 +25°C° 0 mm 4 m/S 752 mmHg 18%
16:00 +22°C° 0 mm 3 m/S 752 mmHg 20%
17:00 +20°C° 0 mm 3 m/S 752 mmHg 23%
18:00 +18°C° 0 mm 2 m/S 752 mmHg 25%
19:00 +17°C° 0 mm 3 m/S 752 mmHg 28%
20:00 +14°C° 0 mm 3 m/S 752 mmHg 30%
21:00 +13°C° 0 mm 3 m/S 753 mmHg 32%
22:00 +13°C° 0 mm 3 m/S 753 mmHg 35%
23:00 +12°C° 0 mm 3 m/S 753 mmHg 38%
Mehr zeigen